This is the latest recevied weather packets stored in our database for station/object WX7EM. If no packets are shown the sender has not sent any weather packets the latest 10 day(s).
| Time | Temp. | Humidity | Pressure | Rain* | Wind** | Luminosity | Snow |
|---|---|---|---|---|---|---|---|
| 1778175031 | 14.44° C | 80% | 1019.7 hPa | 0 mm | - | 250 W/m² | - |
| 1778174726 | 14.44° C | 81% | 1019.6 hPa | 0 mm | - | 236 W/m² | - |
| 1778174424 | 13.89° C | 82% | 1019.7 hPa | 0 mm | - | 237 W/m² | - |
| 1778174119 | 13.89° C | 82% | 1019.8 hPa | 0 mm | - | 234 W/m² | - |
| 1778173817 | 13.89° C | 83% | 1019.5 hPa | 0 mm | - | 209 W/m² | - |
| 1778173513 | 13.89° C | 82% | 1019.8 hPa | 0 mm | - | 227 W/m² | - |
| 1778173210 | 13.89° C | 83% | 1019.4 hPa | 0 mm | - | 227 W/m² | - |
| 1778172906 | 13.33° C | 85% | 1019.4 hPa | 0 mm | - | 199 W/m² | - |
| 1778172602 | 13.89° C | 83% | 1019.4 hPa | 0 mm | - | 189 W/m² | - |
| 1778172299 | 13.33° C | 84% | 1019.6 hPa | 0 mm | - | 173 W/m² | - |
| 1778171995 | 13.33° C | 83% | 1019.7 hPa | 0 mm | - | 186 W/m² | - |
| 1778171693 | 13.33° C | 83% | 1019.7 hPa | 0 mm | - | 199 W/m² | - |
| 1778171390 | 13.33° C | 84% | 1019.7 hPa | 0 mm | - | 186 W/m² | - |
| 1778171085 | 13.33° C | 84% | 1019.7 hPa | 0 mm | - | 181 W/m² | - |
| 1778170783 | 13.33° C | 84% | 1019.6 hPa | 0 mm | - | 182 W/m² | - |
| 1778170479 | 13.33° C | 84% | 1019.7 hPa | 0 mm | - | 171 W/m² | - |
| 1778170176 | 12.78° C | 85% | 1019.8 hPa | 0 mm | - | 176 W/m² | - |
| 1778169872 | 12.78° C | 86% | 1019.9 hPa | 0 mm | - | 157 W/m² | - |
| 1778169567 | 12.78° C | 86% | 1019.9 hPa | 0 mm | - | 144 W/m² | - |
| 1778169264 | 12.78° C | 87% | 1019.9 hPa | 0 mm | - | 142 W/m² | - |
| 1778168961 | 12.78° C | 87% | 1019.9 hPa | 0 mm | - | 118 W/m² | - |
| 1778168658 | 12.22° C | 87% | 1019.7 hPa | 0 mm | - | 119 W/m² | - |
| 1778168355 | 12.22° C | 87% | 1019.9 hPa | 0 mm | - | 122 W/m² | - |
| 1778168051 | 12.78° C | 87% | 1019.9 hPa | 0 mm | - | 112 W/m² | - |
| 1778167748 | 12.78° C | 87% | 1019.7 hPa | 0 mm | - | 107 W/m² | - |
* Rain latest hour (hover to see other rain measurements)
** Current wind speed in m/s (hover to see current wind gust speed)